Location: Brivio
(45.7333°N, 9.4500°E)
Time: 19:06:55
(UTC+00:00)

N. Korean satellite - Pass Details

Date: 14 December 2019
Orbit: 454 x 507 km, 97.2° (Epoch: 28 January)

Event Time Altitude Azimuth Distance (km) Brightness Sun altitude
Rises 04:51:39 0° 19° (NNE) 2,536 10.3 -20.6°
Reaches altitude 10° 04:53:50 10° 27° (NNE) 1,643 9.4 -20.2°
Maximum altitude 04:57:10 39° 98° (E) 717 7.9 -19.7°
Drops below altitude 10° 05:00:25 10° 168° (SSE) 1,605 9.5 -19.1°
Sets 05:02:31 0° 177° (S) 2,468 10.4 -18.7°
